Location: Belvedere Heights
(33.9836°N, 117.3109°W)
Time: 09:27:50
(UTC+00:00)

Cosmos 1743 Rocket - Pass Details

Date: 21 March 2023
Orbit: 602 x 632 km, 82.6° (Epoch: 01 June)

Event Time Altitude Azimuth Distance (km) Brightness Sun altitude
Rises 12:29:45 0° 359° (N) 2,913 7.2 -17.7°
Reaches altitude 10° 12:32:02 10° 4° (N) 2,006 6.4 -17.2°
Maximum altitude 12:36:23 54° 81° (E) 769 4.4 -16.3°
Drops below altitude 10° 12:40:45 10° 159° (SSE) 2,004 6.3 -15.5°
Sets 12:43:01 0° 164° (SSE) 2,908 7.1 -15.0°
